Date String (YYYY-MM-DD hh:mm:ss) UTC,Instrument flags,Ambient pressure (hPa),Sample flow (lpm),Bypass flow (lpm),Sample temperature (°C),Ambient temperature (°C),ASC tube jacket temperature (°C),LED temperature (°C),Box temperature (°C),Sample RH (%),Span deviation,Mass concentration (μg/m³),Mass concentration (μg/m³),Mass concentration (μg/m³)
DateTimeUTC,F1_M11,P_M11,Q1_M11,Q2_M11,T1_M11,T2_M11,T3_M11,T4_M11,T5_M11,U1_M11,ZSPAN_M11,X2_M11,X0_M11,X1_M11
2022-09-12 19:00:00,,0828.2,5.01,0.00,29.7,27.9,00.0,38.4,31.5,09.1,0002.8,0008.49,0013.19,0008.06
2022-09-12 19:01:00,,0828.2,5.00,0.00,29.8,28.1,00.0,38.4,31.6,09.2,0002.4,0008.56,0013.26,0008.12
2022-09-12 19:02:00,,0828.2,5.01,0.00,29.8,28.3,00.0,38.4,31.6,09.8,0002.0,0008.62,0013.34,0008.18
2022-09-12 19:03:00,,0828.2,4.98,0.00,29.8,28.4,00.0,38.4,31.7,09.6,0002.5,0008.68,0013.48,0008.23
2022-09-12 19:04:00,,0828.2,5.01,0.00,29.8,28.6,00.0,38.4,31.7,09.5,0002.4,0008.80,0013.71,0008.28
2022-09-12 19:05:00,,0828.2,5.00,0.00,29.9,28.5,00.0,38.4,31.8,10.6,0002.9,0008.83,0014.00,0008.31
2022-09-12 19:06:00,,0828.1,4.97,0.00,29.9,27.2,00.0,38.4,31.7,10.5,0003.1,0008.84,0014.13,0008.31
2022-09-12 19:07:00,,0828.1,5.02,0.00,29.8,26.5,00.0,38.4,31.6,10.3,0003.0,0008.82,0014.15,0008.30
2022-09-12 19:08:00,,0828.1,5.00,0.00,29.8,26.7,00.0,38.4,31.6,10.4,0003.2,0008.81,0014.14,0008.28
2022-09-12 19:09:00,,0828.2,4.99,0.00,29.7,27.0,00.0,38.4,31.4,09.6,0003.1,0008.84,0014.29,0008.30
2022-09-12 19:10:00,,0828.2,5.01,0.00,29.7,27.3,00.0,38.4,31.4,09.4,0002.7,0008.88,0014.34,0008.33
2022-09-12 19:11:00,,0828.1,5.00,0.00,29.7,27.6,00.0,38.4,31.4,08.8,0002.0,0008.89,0013.82,0008.34
2022-09-12 19:12:00,,0828.1,5.01,0.00,29.7,27.9,00.0,38.3,31.5,08.9,0001.4,0008.88,0014.46,0008.35
2022-09-12 19:13:00,,0828.1,5.01,0.00,29.7,28.1,00.0,38.3,31.5,09.3,0001.2,0008.87,0014.37,0008.34
2022-09-12 19:14:00,,0828.1,4.98,0.00,29.8,28.3,00.0,38.4,31.6,09.0,0000.7,0008.87,0014.32,0008.34
2022-09-12 19:15:00,,0828.1,5.01,0.00,29.8,28.5,00.0,38.4,31.7,09.7,0001.0,0008.85,0014.21,0008.33
2022-09-12 19:16:00,,0828.1,4.99,0.00,29.8,28.6,00.0,38.4,31.7,09.1,0001.0,0008.85,0013.81,0008.34
2022-09-12 19:17:00,,0828.1,5.01,0.00,29.9,28.7,00.0,38.4,31.8,09.0,0000.5,0008.87,0013.71,0008.34
2022-09-12 19:18:00,,0828.1,5.00,0.00,29.9,28.4,00.0,38.5,31.8,09.9,-000.1,0008.87,0013.64,0008.36
2022-09-12 19:19:00,,0828.1,4.98,0.00,29.9,27.2,00.0,38.4,31.7,10.7,0000.1,0008.90,0014.32,0008.40
2022-09-12 19:20:00,,0828.1,5.02,0.00,29.8,26.7,00.0,38.4,31.7,09.8,0000.2,0008.93,0014.32,0008.44
2022-09-12 19:21:00,,0828.1,4.99,0.00,29.8,26.9,00.0,38.4,31.6,08.8,0000.5,0008.94,0014.21,0008.44
2022-09-12 19:22:00,,0828.0,4.99,0.00,29.7,27.2,00.0,38.4,31.4,09.2,0000.9,0008.91,0014.10,0008.45
2022-09-12 19:23:00,,0828.0,5.00,0.00,29.7,27.5,00.0,38.4,31.4,09.2,0001.6,0008.99,0013.29,0008.52
2022-09-12 19:24:00,,0828.0,5.02,0.00,29.7,27.8,00.0,38.4,31.5,09.3,0002.1,0009.06,0013.36,0008.60
2022-09-12 19:25:00,,0828.0,5.00,0.00,29.7,28.0,00.0,38.4,31.6,08.8,0002.5,0009.10,0013.47,0008.65
2022-09-12 19:26:00,,0828.0,5.00,0.00,29.8,28.3,00.0,38.4,31.6,08.5,0002.8,0009.13,0013.56,0008.69
2022-09-12 19:27:00,,0828.0,4.99,0.00,29.8,28.4,00.0,38.4,31.7,09.5,0002.2,0009.13,0013.63,0008.72
2022-09-12 19:28:00,,0828.0,5.01,0.00,29.8,28.6,00.0,38.4,31.7,08.8,0002.2,0009.17,0014.95,0008.76
2022-09-12 19:29:00,,0828.0,4.99,0.00,29.9,27.8,00.0,38.4,31.7,08.5,0002.5,0009.21,0015.03,0008.81
2022-09-12 19:30:00,,0827.9,5.00,0.00,29.8,26.5,00.0,38.4,31.6,08.6,0002.4,0009.20,0014.26,0008.82
2022-09-12 19:31:00,,0827.9,5.00,0.00,29.8,26.5,00.0,38.3,31.6,08.5,0002.7,0009.22,0014.19,0008.85
2022-09-12 19:32:00,,0827.9,5.00,0.00,29.7,26.8,00.0,38.3,31.4,09.5,0002.7,0009.27,0013.98,0008.88
2022-09-12 19:33:00,,0827.9,4.99,0.00,29.7,27.1,00.0,38.3,31.3,09.5,0003.1,0009.31,0013.97,0008.91
2022-09-12 19:34:00,,0827.9,5.01,0.00,29.6,27.4,00.0,38.3,31.4,08.9,0002.1,0009.29,0014.33,0008.88
2022-09-12 19:35:00,,0827.8,5.00,0.00,29.7,27.7,00.0,38.3,31.4,08.7,0001.4,0009.28,0014.60,0008.85
2022-09-12 19:36:00,,0827.9,5.01,0.00,29.7,27.9,00.0,38.3,31.5,08.3,0001.5,0009.29,0014.56,0008.83
2022-09-12 19:37:00,,0827.9,5.00,0.00,29.7,28.2,00.0,38.3,31.5,08.8,0001.2,0009.28,0014.51,0008.82
2022-09-12 19:38:00,,0827.8,4.99,0.00,29.7,28.4,00.0,38.3,31.6,08.4,0001.4,0009.27,0014.43,0008.82
2022-09-12 19:39:00,,0827.9,5.01,0.00,29.8,28.5,00.0,38.3,31.7,08.3,0001.5,0009.25,0013.50,0008.81
2022-09-12 19:40:00,,0827.9,5.01,0.00,29.8,28.6,00.0,38.4,31.7,08.3,0001.7,0009.26,0013.68,0008.79
2022-09-12 19:41:00,,0827.9,4.99,0.00,29.8,28.8,00.0,38.4,31.8,07.9,0001.6,0009.26,0013.73,0008.77
2022-09-12 19:42:00,,0827.9,4.99,0.00,29.9,28.4,00.0,38.4,31.8,08.8,0001.2,0009.22,0013.74,0008.73
2022-09-12 19:43:00,,0827.8,5.00,0.00,29.9,27.2,00.0,38.4,31.7,08.9,0001.2,0009.16,0013.61,0008.71
2022-09-12 19:44:00,,0827.8,4.99,0.00,29.8,26.6,00.0,38.4,31.7,08.9,0000.6,0009.15,0013.49,0008.72
2022-09-12 19:45:00,,0827.8,5.01,0.00,29.8,26.9,00.0,38.3,31.6,09.2,0000.7,0009.13,0013.23,0008.71
2022-09-12 19:46:00,,0827.8,4.99,0.00,29.7,27.1,00.0,38.3,31.4,08.9,0001.0,0009.14,0013.44,0008.74
2022-09-12 19:47:00,,0827.8,5.01,0.00,29.7,27.4,00.0,38.3,31.4,09.1,0001.1,0009.13,0014.33,0008.77
2022-09-12 19:48:00,,0827.8,5.00,0.00,29.7,27.7,00.0,38.3,31.4,08.8,0001.3,0009.17,0015.60,0008.81
2022-09-12 19:49:00,,0827.8,5.01,0.00,29.7,28.0,00.0,38.3,31.5,08.9,0001.7,0009.24,0016.74,0008.84
2022-09-12 19:50:00,,0827.8,5.00,0.00,29.7,28.2,00.0,38.4,31.6,08.8,0001.4,0009.26,0016.72,0008.85
2022-09-12 19:51:00,,0827.7,5.01,0.00,29.8,28.4,00.0,38.4,31.6,08.4,0001.7,0009.25,0016.34,0008.87
2022-09-12 19:52:00,,0827.7,4.98,0.00,29.8,28.5,00.0,38.4,31.7,08.3,0002.1,0009.30,0016.59,0008.92
2022-09-12 19:53:00,,0827.7,5.01,0.00,29.9,28.7,00.0,38.4,31.7,09.1,0002.1,0009.34,0017.38,0008.94
2022-09-12 19:54:00,,0827.7,4.99,0.00,29.9,28.0,00.0,38.4,31.8,09.4,0002.2,0009.41,0017.79,0009.00
2022-09-12 19:55:00,,0827.7,5.00,0.00,29.8,26.8,00.0,38.4,31.7,09.8,0002.5,0009.46,0017.94,0009.04
2022-09-12 19:56:00,,0827.7,5.01,0.00,29.8,26.6,00.0,38.4,31.6,09.3,0003.0,0009.52,0018.16,0009.08
2022-09-12 19:57:00,,0827.7,5.01,0.00,29.7,26.9,00.0,38.3,31.5,09.0,0002.8,0009.60,0018.04,0009.09
2022-09-12 19:58:00,,0827.7,4.98,0.00,29.7,27.2,00.0,38.3,31.4,09.0,0002.4,0009.65,0017.34,0009.11
2022-09-12 19:59:00,,0827.7,5.00,0.00,29.7,27.5,00.0,38.3,31.4,09.1,0002.1,0009.68,0016.10,0009.12
